Cambridge Bay, Nunavut

4:26 AM MST on November 19, 2017 (GMT -0700)
Cambridge Bay

Weather History for CYCB - March, 2013

Change the Weather History Date:

Monday, March 25, 2013

  Actual Average Record
Temperature  
Mean Temperature -3 °F -  
Max Temperature 2 °F -2 °F 14 °F (1999)
Min Temperature -8 °F -18 °F -38 °F (2004)
Degree Days  
Heating Degree Days 68    
Moisture  
Dew Point -9 °F    
Average Humidity 71    
Maximum Humidity 85    
Minimum Humidity 55    
Precipitation  
Precipitation 0.00 in 0.01 in - ()
Sea Level Pressure  
Sea Level Pressure 30.53 in    
Wind  
Wind Speed 8 mph ()    
Max Wind Speed 18 mph    
Max Gust Speed -    
Visibility 14.6 miles    
Events      
Averages and records for this station are not official NWS values.
T = Trace of Precipitation, MM = Missing Value Source: Averaged Metar Reports

Daily Weather History Graph

Daily Weather History Graph

Search for Another Location

Airport or City:

Trip Planner

Search our weather history database for the weather conditions in past years. The results will help you decide how hot, cold, wet, or windy it might be!

Date:

Astronomy

Mar. 25, 2013 Rise Set
Actual Time 6:35 AM MDT 7:38 PM MDT
Civil Twilight 5:36 AM MDT 8:39 PM MDT
Nautical Twilight 4:17 AM MDT 9:59 PM MDT
Astronomical Twilight 2:15 AM MDT 12:11 AM MDT
Moon 5:47 PM MDT (3/25) 6:01 AM MDT (3/25)
Length of Visible Light 15h 03m
Length of Day
13h 02m
Waxing Gibbous, 97% of the Moon is Illuminated
Mar 25
Waxing Gibbous
Mar 27
Full
Apr 2
Last Quarter
Apr 10
New
Apr 18
First Quarter

Hourly Weather History & Observations

Time (MDT) Temp. Windchill Dew Point Humidity Pressure Visibility Wind Dir Wind Speed Gust Speed Precip Events Conditions
12:00 AM 1 °F - -4 °F 69% 30.49 in 12 mi SSE 18.4 mph - -   Scattered Clouds
12:00 AM 1.4 °F -14.5 °F -4.0 °F 78% 30.49 in 12.0 mi SE 10.4 mph - N/A   Scattered Clouds
1:00 AM -2.2 °F -18.9 °F -5.8 °F 85% 30.49 in 15.0 mi East 10.4 mph - N/A   Scattered Clouds
2:00 AM -0.4 °F -13.4 °F -7.6 °F 72% 30.49 in 15.0 mi SE 6.9 mph - N/A   Mostly Cloudy
3:00 AM -2.2 °F -16.8 °F -9.4 °F 71% 30.50 in 15.0 mi South 8.1 mph - N/A   Mostly Cloudy
4:00 AM -4.0 °F -20.2 °F -9.4 °F 78% 30.50 in 15.0 mi SE 9.2 mph - N/A   Scattered Clouds
6:00 AM -5 °F - -11 °F 62% 30.51 in 15 mi SSE 8.1 mph - -   Scattered Clouds
6:00 AM -4.0 °F -19.0 °F -11.2 °F 71% 30.51 in 15.0 mi SSE 8.1 mph - N/A   Partly Cloudy
7:00 AM -5.8 °F -14.5 °F -13.0 °F 71% 30.52 in 15.0 mi SSE 3.5 mph - N/A   Partly Cloudy
8:00 AM -5.8 °F -14.5 °F -11.2 °F 77% 30.53 in 15.0 mi ESE 3.5 mph - N/A   Partly Cloudy
9:00 AM -5.8 °F -16.7 °F -13.0 °F 71% 30.53 in 15.0 mi ESE 4.6 mph - N/A   Partly Cloudy
10:00 AM -4.0 °F -16.3 °F -11.2 °F 71% 30.53 in 15.0 mi SE 5.8 mph - N/A   Partly Cloudy
11:00 AM -2.2 °F -12.5 °F -9.4 °F 71% 30.54 in 15.0 mi SE 4.6 mph - N/A   Partly Cloudy
12:00 PM -3 °F - -11 °F 55% 30.54 in 15 mi East 4.6 mph - -   Scattered Clouds
12:00 PM -2.2 °F -10.4 °F -11.2 °F 66% 30.54 in 15.0 mi ENE 3.5 mph - N/A   Partly Cloudy
1:00 PM -0.4 °F -12.0 °F -7.6 °F 72% 30.54 in 15.0 mi SE 5.8 mph - N/A   Partly Cloudy
2:00 PM 1.4 °F -9.9 °F -5.8 °F 72% 30.55 in 15.0 mi SE 5.8 mph - N/A   Partly Cloudy
3:00 PM 1.4 °F -9.9 °F -5.8 °F 72% 30.55 in 15.0 mi SE 5.8 mph - N/A   Partly Cloudy
4:00 PM 1.4 °F -12.5 °F -5.8 °F 72% 30.54 in 15.0 mi SE 8.1 mph - N/A   Partly Cloudy
5:00 PM 1.4 °F -11.3 °F -5.8 °F 72% 30.55 in 15.0 mi SE 6.9 mph - N/A   Partly Cloudy
6:00 PM -1 °F - -8 °F 59% 30.55 in 15 mi SE 6.9 mph - -   Scattered Clouds
6:00 PM -0.4 °F -13.4 °F -7.6 °F 72% 30.55 in 15.0 mi SE 6.9 mph - N/A   Partly Cloudy
7:00 PM -2.2 °F -18.9 °F -9.4 °F 71% 30.54 in 15.0 mi SE 10.4 mph - N/A   Clear
8:00 PM -2.2 °F -15.6 °F -11.2 °F 66% 30.54 in 15.0 mi SE 6.9 mph - N/A   Partly Cloudy
9:00 PM 1.4 °F -13.5 °F -5.8 °F 72% 30.54 in 15.0 mi SSE 9.2 mph - N/A   Partly Cloudy
10:00 PM -2.2 °F -12.5 °F -11.2 °F 66% 30.54 in 15.0 mi SE 4.6 mph - N/A   Clear
10:19 PM - - - N/A% - 12.0 mi SSE 4.6 mph - N/A   Clear
11:00 PM -2.2 °F -14.2 °F -7.6 °F 78% 30.55 in 12.0 mi SSE 5.8 mph - N/A   Clear